Regional Weather Roundup
Issued by NWS

Home | Current Version | Previous Version | Text Only | Print | Product List | Glossary On
Versions: 1 2 3 4 5 6 7 8 9 10 11 12 13 14 15 16 17 18 19 20 21 22 23 24 25 26 27 28 29 30 31 32 33 34 35 36 37 38 39 40 41 42 43 44 45 46 47 48 49 50
000
ASUS45 KABQ 291601
RWRNM
NEW MEXICO REGIONAL WEATHER ROUNDUP
NATIONAL WEATHER SERVICE ALBUQUERQUE NM
1000 AM MDT FRI JUL 29 2016

NOTE: "FAIR" MEANS FEW OR NO CLOUDS BELOW 12,000 FEET AGL WITH NO
       SIGNIFICANT WEATHER OR OBSTRUCTIONS TO VISION.

      THIS PRODUCT IS RELEASED AS TWO VERSIONS.  ONE VERSION NEAR
      THE TOP OF THE HOUR CONTAINING PRELIMINARY DATA FROM ALBUQUERQUE
      AND OTHER STATIONS.  A FINAL VERSION WITH ADDITIONAL DATA IS
      ISSUED ABOUT 10 MINUTES AFTER THE HOUR.

NMZ501-503-504-510>518-291700-
NORTHWEST PLATEAU/NORTHCENTRAL MOUNTAINS

CITY           SKY/WX    TMP DP  RH WIND       PRES   REMARKS
FARMINGTON     FAIR      81  40  23 E6        30.15F
LOS ALAMOS     FAIR      76  44  31 S12G17    30.31F
SANTA FE       NOT AVBL
TAOS           FAIR      75  39  27 W3        30.32F
ANGEL FIRE     FAIR      71  45  39 CALM      30.40F

$$
NMZ402-403-502-505>509-291700-
WESTCENTRAL MOUNTAINS/SOUTHWEST MOUNTAINS

CITY           SKY/WX    TMP DP  RH WIND       PRES   REMARKS
GALLUP         FAIR      82  44  26 S9        30.25S
GRANTS         FAIR      81  44  26 E6        30.28S
SILVER CITY    FAIR      80  53  40 SE8       30.22S

$$
NMZ407-409-411-412-291700-
SOUTHERN DESERTS

CITY           SKY/WX    TMP DP  RH WIND       PRES   REMARKS
LORDSBURG      FAIR      86  54  32 SE8G17    30.11S
DEMING         FAIR      84  56  38 CALM      30.12F
LAS CRUCES     FAIR      83  54  35 S3        30.15S
HOLLOMAN AFB   FAIR      85  56  37 VRB6      30.11S
ALAMOGORDO     FAIR      82  55  39 CALM      30.14S
T OR C         FAIR      83  53  35 SW7       30.16S

$$
NMZ519>523-291700-
CENTRAL VALLEYS/CENTRAL HIGHLANDS

CITY           SKY/WX    TMP DP  RH WIND       PRES   REMARKS
ALBUQUERQUE    FAIR      84  53  34 SW7       30.19F
DOUBLE EAGLE   MOSUNNY   81  52  36 SE9       30.24S
MORIARTY ARPT  FAIR      77  47  35 S20       30.30S
CLINES CORNERS FAIR      72  46  39 S21G26    30.35R
BELEN          FAIR      85  47  26 S8        30.18S
SOCORRO        FAIR      84  51  31 SE16      30.16F

$$
NMZ524>526-539-540-291700-
SOUTHCENTRAL MOUNTAINS

CITY           SKY/WX    TMP DP  RH WIND       PRES   REMARKS
RUIDOSO          N/A     75  48  38 E7        30.36F

$$
NMZ527>531-291700-
NORTHEAST HIGHLANDS/NORTHEAST PLAINS

CITY           SKY/WX    TMP DP  RH WIND       PRES   REMARKS
LAS VEGAS      FAIR      74  53  48 S18       30.30F
RATON          FAIR      71  53  52 S9        30.24F
CLAYTON        FAIR      81  58  45 S15       30.19S

$$
NMZ532>537-291700-
EASTCENTRAL PLAINS

CITY           SKY/WX    TMP DP  RH WIND       PRES   REMARKS
TUCUMCARI      FAIR      87  54  32 SW12      30.11S
CANNON AFB     FAIR      81  60  49 S9        30.16F
CLOVIS AIRPORT FAIR      84  61  45 S15       30.16S

$$
NMZ028-029-538-291700-
SOUTHEAST PLAINS

CITY           SKY/WX    TMP DP  RH WIND       PRES   REMARKS
ROSWELL        FAIR      82  63  52 NE5       30.13S
ARTESIA        FAIR      82  63  51 SE7       30.13R
CARLSBAD       FAIR      83  61  47 SE10      30.09R
HOBBS          SUNNY     84  57  39 SE7       30.15S


$$




USA.gov is the U.S. government's official web portal to all federal, state and local government web resources and services.